Temp
-12 -12 -9 -10 -10 -10 -11 -12 -11 -11 -11 -12 -12 -11 -11 -10 -11 -10 -10 -10 -10 -10 -10 -11 -11 -11 -13 -14 -13 -13 -14 -13 -13 -13 -13 -13 -13 -13 -13 -13 -13 -13 -13 -13
-12 -10 -10 -11 -11 -12 -12 -12 -11 -11 -11 -12 -12 -11 -11 -10 -11 -11 -11 -11 -10 -10 -10 -11 -11 -12 -13 -14 -13 -14 -14 -13 -13 -13 -13 -13 -13 -13 -13 -13 -14 -13 -13 -13
-12 -10 -12 -12 -12 -12 -12 -12 -11 -11 -12 -12 -12 -11 -11 -10 -11 -11 -11 -11 -10 -9 -10 -11 -11 -12 -13 -13 -13 -14 -13 -13 -12 -12 -13 -13 -13 -13 -13 -13 -13 -13 -13 -13
-12 -12 -12 -12 -12 -12 -12 -12 -13 -13 -13 -12 -13 -10 -10 -10 -10 -11 -11 -11 -10 -10 -10 -10 -11 -12 -13 -13 -13 -13 -13 -12 -12 -13 -13 -13 -12 -12 -13 -13 -13 -13 -13 -13
-10 -11 -11 -11 -11 -13 -12 -14 -12 -13 -12 -12 -12 -11 -8 -10 -10 -10 -12 -10 -10 -10 -10 -10 -12 -12 -12 -12 -12 -12 -12 -12 -12 -12 -12 -12 -12 -12 -13 -13 -13 -14 -13 -14
-12 -12 -12 -11 -12 -12 -13 -13 -13 -13 -12 -9 -10 -11 -8 -10 -11 -11 -10 -11 -11 -10 -11 -11 -11 -11 -11 -12 -12 -12 -12 -12 -12 -12 -12 -12 -12 -12 -12 -13 -13 -13 -14 -14
-11 -12 -11 -12 -12 -12 -12 -13 -13 -12 -12 -11 -11 -10 -9 -11 -10 -10 -11 -11 -10 -11 -10 -10 -11 -11 -11 -11 -12 -11 -12 -12 -12 -12 -12 -12 -12 -12 -12 -12 -13 -13 -14 -14
-12 -12 -11 -11 -11 -11 -11 -12 -12 -12 -12 -11 -10 -10 -10 -11 -11 -11 -11 -11 -11 -10 -10 -11 -11 -11 -11 -11 -11 -12 -12 -12 -12 -12 -12 -12 -12 -12 -12 -13 -13 -13 -14 -14
-13 -12 -13 -12 -12 -12 -11 -11 -12 -12 -12 -11 -10 -10 -10 -11 -10 -11 -11 -11 -11 -11 -10 -11 -11 -11 -11 -11 -12 -12 -12 -12 -12 -12 -12 -12 -12 -12 -12 -12 -13 -13 -14 -14
-13 -13 -13 -12 -12 -12 -12 -12 -12 -11 -10 -10 -10 -9 -10 -11 -10 -11 -12 -12 -11 -11 -11 -11 -11 -11 -11 -11 -12 -12 -12 -12 -12 -12 -12 -12 -12 -12 -12 -13 -13 -13 -13 -14
-13 -13 -13 -13 -11 -11 -11 -12 -11 -12 -11 -10 -10 -9 -10 -11 -11 -11 -12 -12 -12 -11 -12 -11 -11 -11 -11 -11 -12 -12 -12 -12 -12 -13 -12 -12 -12 -12 -12 -13 -13 -13 -13 -14
-14 -13 -13 -12 -12 -12 -12 -12 -11 -10 -10 -10 -10 -10 -10 -11 -11 -12 -12 -12 -12 -12 -11 -10 -10 -11 -11 -11 -12 -12 -12 -12 -12 -12 -12 -12 -12 -12 -12 -12 -13 -12 -13 -14
-13 -13 -13 -12 -12 -12 -11 -11 -10 -11 -11 -10 -10 -10 -11 -12 -11 -12 -12 -12 -12 -12 -10 -10 -10 -11 -11 -11 -12 -12 -12 -12 -12 -12 -12 -12 -12 -12 -12 -12 -13 -12 -13 -13
-13 -12 -12 -11 -10 -10 -10 -11 -11 -11 -10 -10 -9 -11 -11 -11 -10 -12 -12 -11 -12 -11 -10 -10 -11 -11 -11 -11 -12 -12 -12 -12 -12 -12 -12 -12 -12 -12 -12 -13 -12 -12 -13 -13
-13 -12 -12 -11 -11 -11 -11 -11 -11 -11 -10 -10 -10 -11 -12 -11 -11 -12 -12 -11 -12 -10 -10 -10 -11 -11 -11 -11 -11 -12 -12 -12 -12 -12 -12 -12 -12 -12 -12 -13 -12 -12 -13 -13
-14 -13 -12 -12 -12 -11 -11 -11 -11 -11 -11 -10 -11 -11 -12 -12 -11 -13 -12 -12 -12 -11 -10 -10 -11 -11 -11 -11 -11 -12 -11 -12 -12 -12 -12 -12 -12 -12 -12 -13 -13 -13 -13 -13
-14 -13 -12 -12 -13 -12 -12 -11 -11 -11 -11 -11 -10 -11 -12 -12 -11 -13 -12 -11 -11 -11 -10 -10 -10 -11 -11 -11 -11 -11 -11 -11 -12 -12 -12 -12 -12 -11 -12 -12 -13 -13 -14 -14
-15 -13 -12 -12 -13 -13 -11 -12 -12 -11 -11 -10 -10 -12 -12 -12 -13 -12 -12 -12 -12 -11 -10 -10 -10 -11 -11 -11 -11 -11 -11 -11 -11 -12 -12 -12 -12 -12 -12 -12 -13 -13 -14 -14
-16 -13 -12 -13 -13 -13 -12 -13 -12 -11 -11 -10 -10 -11 -12 -12 -12 -11 -11 -11 -11 -10 -10 -10 -10 -11 -11 -11 -11 -11 -11 -11 -12 -12 -12 -12 -12 -12 -12 -13 -13 -13 -14 -13
-16 -14 -14 -13 -13 -13 -12 -12 -13 -11 -11 -10 -11 -11 -11 -12 -11 -12 -11 -12 -11 -10 -10 -10 -11 -11 -11 -11 -11 -11 -12 -12 -12 -12 -12 -12 -12 -12 -12 -13 -13 -13 -13 -13
-17 -16 -15 -14 -14 -13 -13 -13 -13 -12 -11 -10 -11 -11 -11 -12 -11 -12 -11 -11 -11 -10 -10 -10 -10 -11 -11 -11 -11 -11 -12 -12 -12 -12 -12 -12 -13 -13 -12 -13 -13 -13 -13 -13
-18 -17 -17 -15 -14 -15 -14 -14 -13 -12 -11 -11 -11 -11 -11 -12 -11 -13 -11 -11 -11 -10 -10 -10 -10 -10 -11 -11 -11 -11 -12 -12 -12 -12 -13 -13 -13 -13 -13 -13 -13 -13 -13 -13
-18 -17 -17 -16 -14 -14 -14 -13 -12 -12 -11 -11 -11 -11 -12 -11 -10 -12 -11 -11 -11 -11 -10 -10 -10 -10 -11 -11 -11 -12 -12 -12 -12 -12 -13 -13 -13 -13 -13 -13 -13 -12 -13 -13
-18 -17 -17 -16 -14 -14 -15 -13 -13 -13 -12 -11 -11 -11 -12 -11 -11 -12 -11 -11 -10 -11 -11 -10 -10 -10 -11 -11 -12 -12 -12 -12 -12 -12 -12 -13 -13 -13 -13 -13 -13 -13 -12 -13
-18 -17 -16 -16 -15 -15 -15 -14 -14 -13 -12 -12 -11 -11 -12 -11 -12 -12 -11 -11 -10 -11 -11 -11 -10 -10 -10 -11 -11 -12 -12 -12 -12 -12 -12 -12 -13 -13 -13 -13 -13 -13 -13 -13
-19 -18 -17 -16 -16 -15 -15 -15 -14 -14 -13 -12 -12 -11 -12 -12 -11 -12 -11 -11 -11 -10 -11 -11 -11 -10 -10 -11 -11 -12 -12 -12 -12 -12 -12 -12 -12 -13 -13 -13 -13 -13 -13 -13
Height
5733 5736 5736 5748 5748 5753 5757 5760 5763 5770 5776 5777 5778 5775 5780 5785 5781 5785 5785 5784 5782 5781 5781 5779 5777 5774 5770 5770 5768 5765 5762 5757 5753 5749 5744 5740 5736 5732 5728 5722 5717 5713 5708 5704
5722 5724 5739 5740 5743 5744 5746 5749 5753 5763 5767 5768 5768 5764 5771 5777 5778 5778 5778 5778 5777 5776 5776 5773 5771 5768 5765 5765 5763 5760 5757 5753 5749 5744 5740 5737 5733 5728 5723 5718 5713 5708 5703 5699
5712 5727 5730 5730 5732 5734 5736 5741 5748 5752 5756 5754 5754 5751 5762 5771 5770 5772 5773 5773 5772 5772 5770 5768 5765 5762 5761 5760 5757 5756 5752 5748 5744 5741 5736 5733 5729 5724 5719 5714 5710 5703 5698 5693
5703 5712 5716 5718 5723 5729 5730 5738 5738 5740 5742 5743 5746 5739 5752 5762 5763 5767 5768 5768 5767 5767 5764 5763 5760 5757 5755 5755 5753 5751 5747 5744 5740 5736 5732 5728 5724 5719 5715 5711 5705 5699 5694 5688
5692 5700 5706 5713 5723 5725 5726 5727 5727 5730 5732 5733 5739 5735 5748 5756 5760 5763 5763 5763 5763 5761 5759 5757 5755 5753 5751 5749 5748 5747 5743 5740 5736 5732 5728 5725 5719 5716 5712 5707 5701 5696 5691 5684
5680 5691 5697 5706 5711 5716 5721 5720 5720 5721 5725 5721 5738 5739 5746 5753 5755 5756 5757 5757 5757 5756 5755 5753 5751 5748 5747 5746 5744 5742 5739 5735 5732 5728 5725 5721 5716 5713 5708 5703 5697 5693 5687 5682
5665 5674 5686 5693 5698 5705 5709 5711 5711 5715 5713 5715 5739 5735 5743 5748 5749 5751 5753 5754 5753 5752 5753 5750 5748 5746 5743 5742 5740 5737 5735 5731 5728 5725 5722 5718 5714 5710 5705 5700 5696 5690 5685 5681
5657 5667 5674 5683 5690 5703 5708 5710 5711 5713 5717 5723 5733 5730 5746 5746 5745 5748 5749 5749 5749 5749 5749 5746 5743 5742 5740 5738 5737 5735 5731 5728 5726 5723 5719 5714 5711 5707 5703 5698 5694 5688 5685 5682
5644 5653 5667 5678 5687 5695 5702 5696 5712 5713 5715 5719 5720 5734 5742 5741 5743 5746 5748 5746 5746 5745 5744 5741 5740 5738 5737 5736 5734 5731 5728 5726 5724 5720 5716 5712 5709 5705 5702 5696 5693 5689 5687 5685
5633 5643 5658 5670 5676 5685 5690 5697 5701 5702 5705 5707 5718 5729 5737 5738 5741 5743 5742 5743 5743 5743 5740 5739 5738 5736 5734 5733 5731 5729 5727 5724 5722 5718 5714 5711 5708 5705 5701 5697 5694 5690 5689 5689
5622 5632 5649 5658 5663 5673 5680 5684 5687 5695 5696 5705 5714 5725 5733 5736 5739 5739 5740 5740 5740 5740 5737 5737 5736 5734 5732 5730 5729 5728 5725 5723 5721 5717 5714 5711 5708 5705 5702 5698 5695 5692 5693 5692
5610 5623 5637 5650 5657 5668 5675 5680 5688 5693 5697 5704 5714 5722 5727 5730 5734 5735 5736 5738 5737 5737 5736 5735 5733 5732 5730 5728 5728 5726 5724 5722 5720 5718 5714 5711 5709 5706 5703 5698 5696 5695 5696 5696
5597 5611 5628 5637 5645 5654 5664 5673 5679 5683 5691 5699 5710 5720 5723 5728 5731 5733 5734 5735 5734 5734 5734 5733 5730 5730 5729 5727 5727 5726 5724 5722 5721 5717 5715 5713 5710 5707 5705 5701 5699 5698 5698 5699
5588 5603 5619 5633 5646 5657 5659 5665 5672 5675 5681 5695 5708 5716 5720 5724 5727 5730 5733 5732 5732 5732 5733 5730 5729 5729 5727 5727 5726 5725 5723 5723 5721 5718 5715 5714 5711 5709 5707 5706 5703 5703 5703 5703
5584 5600 5615 5628 5636 5643 5652 5662 5666 5670 5687 5690 5705 5712 5717 5722 5724 5728 5731 5731 5730 5730 5730 5728 5728 5728 5727 5727 5726 5725 5724 5723 5722 5718 5717 5716 5714 5712 5711 5710 5709 5707 5706 5707
5576 5592 5608 5622 5631 5637 5644 5651 5657 5668 5680 5689 5698 5705 5713 5717 5721 5725 5729 5728 5728 5728 5728 5727 5727 5727 5727 5727 5727 5726 5724 5723 5722 5720 5718 5717 5717 5716 5714 5714 5713 5711 5710 5710
5568 5584 5601 5616 5625 5632 5636 5649 5656 5664 5674 5685 5693 5706 5709 5713 5716 5722 5726 5727 5726 5726 5727 5727 5726 5727 5727 5727 5727 5727 5725 5724 5723 5721 5720 5720 5720 5718 5717 5715 5715 5714 5714 5713
5562 5578 5593 5607 5616 5624 5640 5644 5652 5662 5671 5678 5686 5695 5703 5709 5714 5719 5723 5724 5724 5725 5726 5726 5726 5727 5727 5728 5727 5728 5727 5725 5724 5723 5723 5723 5723 5721 5719 5717 5717 5718 5718 5717
5558 5571 5586 5599 5612 5627 5633 5639 5645 5654 5664 5672 5680 5689 5694 5700 5706 5714 5719 5721 5722 5723 5725 5726 5725 5726 5727 5728 5728 5729 5727 5727 5727 5727 5727 5727 5727 5725 5724 5723 5722 5721 5722 5723
5557 5567 5579 5595 5609 5617 5622 5633 5642 5653 5661 5669 5675 5683 5688 5693 5700 5710 5716 5719 5721 5722 5723 5725 5725 5726 5727 5728 5729 5730 5729 5729 5729 5730 5730 5730 5729 5729 5729 5729 5728 5728 5728 5728
5554 5562 5574 5589 5600 5610 5615 5627 5639 5647 5656 5663 5670 5678 5684 5691 5699 5706 5709 5715 5718 5720 5722 5723 5724 5725 5726 5728 5729 5731 5731 5730 5731 5732 5733 5733 5733 5733 5733 5733 5733 5734 5733 5733
5553 5561 5571 5584 5594 5603 5612 5623 5633 5634 5648 5657 5665 5674 5682 5688 5694 5700 5705 5707 5715 5718 5720 5722 5723 5724 5725 5727 5728 5730 5731 5732 5733 5734 5735 5736 5736 5736 5737 5737 5738 5738 5739 5738
5553 5557 5567 5580 5587 5596 5609 5617 5625 5634 5642 5651 5660 5670 5678 5684 5690 5695 5701 5705 5710 5714 5718 5720 5722 5723 5724 5725 5727 5729 5731 5732 5733 5735 5736 5738 5739 5739 5739 5740 5741 5741 5742 5743
5549 5554 5564 5575 5586 5595 5605 5612 5621 5628 5638 5646 5656 5665 5673 5680 5685 5690 5696 5701 5705 5709 5714 5718 5720 5722 5723 5724 5725 5727 5730 5732 5733 5734 5736 5738 5740 5741 5741 5742 5743 5744 5745 5746
5546 5552 5562 5573 5583 5591 5598 5606 5615 5623 5632 5641 5650 5659 5667 5674 5680 5686 5691 5697 5701 5704 5710 5714 5717 5719 5721 5722 5723 5725 5727 5730 5732 5733 5735 5738 5740 5741 5743 5744 5745 5746 5748 5750
5541 5548 5556 5566 5576 5584 5590 5599 5607 5616 5626 5635 5644 5654 5661 5669 5675 5682 5687 5692 5697 5702 5706 5711 5714 5717 5718 5720 5721 5722 5725 5727 5729 5732 5734 5736 5738 5741 5743 5745 5746 5748 5749 5751
Wind_Speed
53 52 53 50 57 60 61 59 56 51 47 44 40 39 34 27 34 27 28 29 27 19 19 18 20 21 16 23 27 37 40 35 33 31 29 30 31 32 33 30 31 29 27 26
50 49 38 41 43 49 52 53 51 44 43 45 42 40 35 28 27 30 30 22 19 19 18 18 19 20 18 28 33 36 38 31 30 27 29 29 30 33 30 30 28 29 30 30
46 36 36 35 32 37 41 42 40 41 41 45 41 42 37 27 29 32 26 21 20 18 17 19 21 19 20 29 33 34 30 28 24 26 28 28 30 32 29 29 29 30 32 28
53 47 44 41 34 27 33 29 35 37 37 40 35 47 37 29 30 28 19 22 21 20 16 17 18 21 23 25 24 26 25 23 23 23 26 29 31 28 27 27 28 31 30 26
52 51 49 42 29 27 29 30 35 38 36 40 38 47 28 25 21 17 19 19 15 18 15 14 16 20 19 19 21 21 23 22 21 23 27 28 27 25 27 26 29 30 25 20
52 46 45 40 36 35 29 31 25 33 39 51 35 37 21 18 15 22 22 13 16 16 15 15 16 16 19 17 17 20 19 19 21 24 24 24 23 24 25 28 29 25 20 15
59 54 48 47 41 40 39 37 33 37 43 47 25 39 20 10 21 22 16 16 19 11 14 11 13 15 13 11 15 16 18 18 21 22 25 25 24 26 23 28 24 20 14 7
58 55 53 49 45 33 29 33 37 36 33 33 26 36 4 18 20 20 20 19 12 7 10 12 14 14 15 13 13 17 17 20 20 21 25 23 22 21 24 25 21 12 8 7
61 57 50 45 44 38 31 40 27 33 36 30 35 25 17 27 22 15 17 9 7 6 10 14 13 11 12 11 13 14 17 19 18 20 22 18 17 19 22 17 11 9 8 9
61 59 50 43 42 42 42 36 37 38 38 40 34 22 18 22 18 19 9 8 5 6 10 12 9 8 9 11 10 13 17 16 16 19 16 13 15 17 17 12 9 7 8 9
63 59 49 47 48 46 49 45 46 42 45 38 33 20 15 22 20 12 12 9 6 5 12 11 8 9 10 12 9 13 15 15 14 16 12 12 15 15 12 9 8 9 7 8
66 62 51 48 44 40 38 40 40 39 40 35 24 20 24 25 22 13 11 12 5 8 10 10 6 8 10 13 8 12 12 12 11 13 11 11 13 14 9 10 9 9 8 8
69 67 56 52 49 46 44 39 41 41 38 34 25 18 22 22 22 14 12 10 2 8 6 6 6 7 10 9 7 11 11 9 14 12 9 10 12 11 9 12 10 11 10 8
73 67 61 55 47 39 42 41 43 43 40 31 24 22 24 28 20 13 8 9 6 4 4 6 8 4 9 5 6 10 11 10 12 10 6 9 10 7 9 12 12 11 10 10
74 67 60 55 50 44 45 37 39 41 29 32 25 24 20 22 18 12 12 11 5 4 6 5 6 2 7 5 6 9 10 7 7 8 7 7 8 9 12 10 12 12 12 10
74 70 64 57 50 46 46 44 42 37 31 31 27 29 24 21 19 8 17 12 3 2 7 3 3 1 5 5 4 8 8 6 5 7 8 6 8 9 10 9 8 9 8 8
73 71 67 60 52 47 48 44 40 39 32 30 29 20 23 24 18 15 16 11 6 1 4 2 2 3 4 6 5 6 6 6 6 8 9 8 8 10 10 6 7 8 9 9
70 72 68 65 59 53 46 44 42 37 34 31 29 25 23 20 12 17 17 11 8 3 2 4 2 4 5 7 7 4 6 6 7 9 9 10 9 12 14 12 10 12 10 13
65 73 70 65 61 55 51 46 46 43 40 35 31 28 28 23 19 20 17 14 10 6 3 4 3 3 5 7 8 5 5 5 6 8 7 7 8 12 15 20 16 16 17 18
60 69 70 65 61 59 58 51 46 41 41 37 32 30 33 29 26 18 17 15 13 8 5 3 5 3 5 3 8 7 5 5 4 5 4 5 8 11 13 14 17 18 18 17
42 56 61 62 62 63 50 53 44 45 46 41 37 33 35 32 25 16 19 18 18 12 5 5 6 4 5 4 2 6 4 3 2 5 4 5 8 10 12 12 13 15 15 17
38 45 51 57 61 58 50 45 51 52 47 44 41 36 35 34 29 23 22 22 20 15 8 5 5 5 4 5 6 3 4 1 1 3 4 4 6 8 7 8 9 10 13 15
42 49 55 50 62 63 57 53 55 51 49 45 43 37 37 38 33 27 25 25 23 19 14 8 6 6 5 5 5 8 3 0 3 4 5 4 3 5 4 2 5 8 10 13
40 44 47 53 62 58 51 55 56 51 50 48 43 40 37 36 35 30 27 29 26 21 19 15 10 8 8 8 7 8 6 3 2 5 6 6 5 6 6 6 8 12 14 16
37 39 46 53 58 56 53 53 53 57 54 50 44 38 37 36 36 30 28 30 27 22 20 20 16 11 10 10 9 9 9 6 6 4 6 7 7 9 8 8 10 11 12 13
32 34 42 50 54 54 56 49 55 55 54 53 48 40 37 30 40 36 31 30 27 25 21 20 19 17 13 12 10 11 10 8 8 8 7 7 10 13 12 11 12 13 13 13
Wind_Direction
241 244 248 253 255 257 260 261 262 263 263 265 269 259 259 259 258 265 272 277 267 262 270 270 270 281 305 310 298 312 319 316 308 310 315 314 315 316 316 319 321 320 318 310
243 245 250 259 260 258 256 259 258 261 261 265 261 251 257 258 252 259 274 268 246 261 269 280 281 286 306 303 304 309 313 306 305 311 312 311 314 316 317 320 322 319 313 309
247 247 253 249 250 248 254 259 258 260 259 253 253 246 251 246 241 257 275 257 243 257 268 277 282 297 296 298 298 302 302 303 307 310 307 312 313 313 315 320 317 318 317 315
237 239 237 241 243 243 254 263 256 250 252 255 240 250 242 243 245 265 260 253 253 261 265 278 293 294 284 287 296 299 299 303 309 309 311 313 312 310 315 313 315 317 317 319
232 233 238 240 252 247 257 260 246 238 240 230 224 249 233 246 252 262 257 252 253 259 266 287 301 297 294 292 296 298 298 306 312 314 315 314 308 313 316 317 319 318 320 322
228 228 230 235 235 240 247 251 237 223 221 224 213 245 242 265 240 231 244 243 251 266 284 288 299 303 294 298 300 293 303 311 314 317 315 313 312 316 320 324 318 321 326 328
223 226 225 223 225 225 231 235 226 220 221 229 219 241 219 275 232 238 242 243 250 278 278 310 292 303 306 308 296 299 310 312 315 314 315 308 309 319 321 325 324 331 338 16
224 225 225 223 229 233 235 248 241 233 241 244 229 241 295 216 238 236 220 220 253 273 320 321 311 300 311 294 292 307 311 314 312 311 311 310 311 320 324 321 331 345 16 51
220 221 223 224 227 228 232 238 234 243 253 252 242 244 208 216 232 218 216 226 260 290 318 330 320 312 306 294 302 311 315 314 321 317 311 315 322 330 332 338 2 13 76 67
219 221 217 221 224 216 227 234 230 234 237 242 249 251 219 233 225 204 187 243 267 296 342 329 319 314 308 315 316 315 318 323 326 320 327 330 338 337 345 4 20 79 89 84
215 218 213 216 220 213 218 225 224 224 236 245 247 235 206 214 232 201 207 216 267 346 333 295 307 322 307 327 316 318 326 331 327 332 337 338 349 345 348 4 40 101 92 93
212 215 206 209 219 219 218 223 231 235 239 244 243 214 195 206 220 205 213 220 244 328 322 279 309 320 320 331 317 323 335 341 331 333 338 338 355 353 0 40 78 107 98 97
207 212 205 204 210 208 212 217 220 222 234 233 222 173 199 211 223 198 203 215 244 302 350 338 326 327 329 337 328 329 337 338 329 325 336 347 354 9 46 49 93 103 105 106
207 209 206 206 206 206 208 212 218 227 223 214 193 171 191 215 204 195 222 220 241 327 337 359 342 321 348 352 347 334 344 332 331 339 355 11 8 35 57 62 84 96 101 105
206 208 205 202 200 202 206 211 220 228 222 212 189 183 191 213 209 209 240 216 233 4 354 359 345 338 4 7 2 345 349 342 356 21 23 31 33 54 60 74 73 80 94 111
203 206 202 198 200 201 204 204 208 215 210 203 187 175 186 213 215 222 228 203 197 339 356 6 352 80 17 15 12 353 359 355 24 22 14 67 63 60 35 57 68 81 82 105
202 204 202 195 198 202 206 203 207 210 200 202 203 172 198 206 203 228 225 202 171 139 17 85 19 148 46 29 27 356 6 12 41 39 71 82 77 65 62 52 66 66 87 86
203 201 201 197 198 205 201 205 208 205 201 198 193 190 194 206 209 228 211 200 166 173 88 109 83 150 81 38 37 2 9 28 60 72 82 88 77 70 65 82 93 81 69 86
205 201 201 201 199 202 204 203 209 201 202 195 196 186 184 184 199 219 204 199 184 168 126 132 103 151 114 47 43 17 24 35 85 95 89 73 61 68 74 76 84 89 93 92
205 203 204 198 197 201 207 204 207 201 203 198 194 189 190 186 197 211 215 205 199 165 162 103 155 146 150 97 47 35 35 38 103 107 95 78 80 79 83 84 89 89 94 94
205 206 206 197 197 201 207 205 203 205 204 202 200 198 199 193 189 204 217 207 195 181 163 122 160 156 191 202 22 35 41 53 90 121 120 110 104 100 99 94 91 93 93 95
209 214 210 200 199 202 202 204 204 209 207 205 207 204 207 196 194 203 212 194 208 182 173 164 166 176 169 202 243 329 20 89 148 139 139 131 137 122 109 107 100 100 101 101
209 216 216 207 203 204 203 204 207 208 211 212 210 207 207 205 198 205 206 194 199 194 188 189 188 174 194 174 221 253 298 338 184 200 168 185 182 149 141 143 125 118 118 117
195 207 213 213 205 210 208 209 211 209 213 215 212 209 210 211 201 208 208 197 196 193 195 195 205 182 191 199 193 213 252 267 210 199 205 185 191 173 151 149 145 131 126 122
189 193 202 214 211 210 212 211 213 214 212 218 215 209 207 210 204 210 211 200 194 197 202 199 205 208 197 206 203 198 222 242 242 226 210 204 177 178 170 166 161 151 141 133
199 187 193 206 206 210 214 213 213 215 215 214 219 212 210 214 213 211 207 208 198 197 207 204 209 209 212 211 208 202 213 230 228 230 219 209 191 182 184 184 183 178 171 164